Regional Weather Roundup
Issued by NWS Little Rock, AR

Home | Current Version | Previous Version | Graphics & Text | Print | Product List | Glossary On
Versions: 1 2 3 4 5 6 7 8 9 10 11 12 13 14 15 16 17 18 19 20 21 22 23 24 25 26 27 28 29 30 31 32
000
ASUS44 KLZK 220305
RWRLZK

WEATHER ROUNDUP FOR ARKANSAS
NATIONAL WEATHER SERVICE LITTLE ROCK AR
900 PM CST SUN JAN 21 2018

NOTE: "FAIR" INDICATES FEW OR NO CLOUDS BELOW 12,000 FEET WITH NO
SIGNIFICANT WEATHER AND/OR OBSTRUCTIONS TO VISIBILITY.

ARZ001-003-010-029-220400-
NORTHWEST ARKANSAS

CITY           SKY/WX    TMP DP  RH WIND       PRES   REMARKS
FAYETTEVILLE   LGT RAIN  58  57  97 S17       29.68F
FORT SMITH     TSTM      61  60  97 S5        29.69F FOG
HARRISON       LGT RAIN  60  57  89 S14       29.72F
BENTONVILLE    RAIN      55  53  93 SW5       29.69F
ROGERS         CLOUDY    55  53  93 S9        29.70R
SILOAM SPGS    LGT RAIN  56  54  93 SE6       29.67F
HIGHFILL       LGT RAIN  55  54  96 SE6       29.67F
SPRINGDALE     RAIN      57  57 100 SW17G31   29.71R FOG
$$

ARZ004-005-016-220400-
NORTH CENTRAL ARKANSAS

CITY           SKY/WX    TMP DP  RH WIND       PRES   REMARKS
BATESVILLE     CLOUDY    62  57  83 S9        29.83F
FLIPPIN        CLOUDY    63  56  78 S9G23     29.75F
MTN HOME       CLOUDY    62  57  83 S14       29.75F
$$

ARZ040-041-220400-
WEST CENTRAL ARKANSAS

CITY           SKY/WX    TMP DP  RH WIND       PRES   REMARKS
MENA           CLOUDY    68  66  94 S15G28    29.72F
$$

ARZ009-017-025-026-028-220400-
NORTHEAST ARKANSAS

CITY           SKY/WX    TMP DP  RH WIND       PRES   REMARKS
JONESBORO      CLOUDY    60  58  92 S12       29.88F
NEWPORT        FAIR      60  57  89 S21       29.85F
WALNUT RIDGE   MOCLDY    58  55  90 S13       29.86F
BLYTHEVILLE    MOCLDY    60  58  92 S10       29.91F
$$

ARZ022-023-033-042-044-220400-
CENTRAL ARKANSAS

CITY           SKY/WX    TMP DP  RH WIND       PRES   REMARKS
LITTLE ROCK    CLOUDY    63  59  87 SE12      29.84F
N LITTLE ROCK    N/A     62  59  88 SE10      29.77F
JACKSONVILLE   CLOUDY    63  59  87 S9        29.83F
SEARCY         CLOUDY    63  62  97 S15       29.84F
HOT SPRINGS    MOCLDY    64  60  87 S8G29     29.80F
RUSSELLVILLE   CLOUDY    65  58  78 SE8G21    29.75F
CLINTON        MOCLDY    63  57  82 SE8G15    29.78F
$$

ARZ036-220400-
EAST ARKANSAS

CITY           SKY/WX    TMP DP  RH WIND       PRES   REMARKS
WEST MEMPHIS   MOCLDY    60  55  83 SE12      29.90F
$$

ARZ050-053-066-070-073-220400-
SOUTHWEST ARKANSAS

CITY           SKY/WX    TMP DP  RH WIND       PRES   REMARKS
ARKADELPHIA    FAIR      64  60  87 S15G21    29.81F
CAMDEN         MOCLDY    64  57  77 SE12      29.85F
TEXARKANA      CLOUDY    66  60  81 S25G36    29.77F
EL DORADO      MOCLDY    64  62  93 SE16      29.87F
DE QUEEN       CLOUDY    68  61  78 S18G26    29.72F
$$

ARZ056-057-069-220400-
SOUTHEAST ARKANSAS

CITY           SKY/WX    TMP DP  RH WIND       PRES   REMARKS
PINE BLUFF     CLOUDY    64  59  83 S13       29.87F
STUTTGART      LGT RAIN  61  58  90 S10       29.88F
MONTICELLO     MOCLDY    66  58  75 S12G20    29.90S

$$






USA.gov is the U.S. government's official web portal to all federal, state and local government web resources and services.